Погода в Гагарьем

Россия / Тюменская область     55°44′26″N   69°13′39″E
темп.,
°C
ветер,
м/с
пор.,
м/с
влажн.,
%
обл.,
%
осадки,
мм/ч
давл.,
гПа
погр.,
м
28 февраля, вс
вс2823:00−25юв489557 0.0 1026176
02:00−23юв4795100 0.0 1023184
05:00−22вюв4893100 0.0 1021249
08:00−21вюв5995100 0.0 1019312
11:00−17вюв5994100 0.1 1017364
14:00−14вюв61092100 0.1 1015487
17:00−14в61093100 0.3 1013462
20:00−16в61094100 0.3 1011407
1 марта, пн
пн123:00−17всв61096100 0.8 1010363
02:00−17св51095100 0.4 1009350
05:00−19св5995100 0.7 1009323
08:00−18ссв5896100 0.2 1010322
11:00−17ссв4694100 0.4 1012322
14:00−15с4594100 0.0 1013326
17:00−16с2396100 0.1 101560
20:00−19с229897 0.0 101620
2 марта, вт
вт223:00−20зсз119998 0.1 101720
02:00−20зюз129898 0.0 101720
05:00−19зюз119898 0.1 101720
08:00−18ююз129791 0.1 101665
11:00−15ююз239190 0.2 1016291
14:00−13ююз3491100 0.0 1014431
17:00−14ю3495100 0.1 101490
20:00−18ю349794 0.0 101452
3 марта, ср
ср323:00−20ю349970 0.0 101458
02:00−20ю449954 0.0 101271
05:00−20ю499968 0.0 1012148
08:00−19ю5109593 0.0 1010277
11:00−16ю6109496 0.1 1010406
14:00−12ю61192100 0.3 1009548
17:00−10ююз61192100 0.5 1008600
20:00−10ююз61194100 0.4 1007509
4 марта, чт
чт423:00−8ю5129499 0.7 1006474
02:00−6ю51195100 0.4 1003496
05:00−4ю51095100 0.9 1002453
08:00−4ююз51095100 0.3 1001431
11:00−2ююз589499 0.6 1000555
14:00−1ююз4696100 0.3 1000500
17:00−1ююз2297100 0.6 99961
20:00−3зсз3497100 0.2 1000101